Вернуться в каталог

OSCAR 31

АктивенЛюбительское радиоPO
NORAD 19420·PAYLOAD·🇺🇸 United States

Запущен Aug 25, 1988 с Vandenberg Space Force Base

Loading…

Ближайшие Пролёты (ближайшие 24 часа)

TLE

СвежийSource: Space-Track

Эпоха: Sep 14, 2026, 06:51 UTC

1 19420U 88074B   26257.28574696  .00000063  00000-0  92008-4 0  9994
2 19420  90.0504  21.7211 0094749 173.3113 214.0451 13.42621267863482

Отслеживайте OSCAR 31 в реальном времени с AllMySat

Download on the App Store